This is the latest recevied weather packets stored in our database for station/object IU7URP-17. If no packets are shown the sender has not sent any weather packets the latest 10 day(s).
| Time | Temp. | Humidity | Pressure | Rain* | Wind** | Luminosity | Snow |
|---|---|---|---|---|---|---|---|
| 1788455875 | 26.67° C | 60% | 1015.4 hPa | - | - | - | - |
| 1788454671 | 27.22° C | 58% | 1015.4 hPa | - | - | - | - |
| 1788453467 | 28.33° C | 59% | 1015.3 hPa | - | - | - | - |
| 1788451059 | 28.89° C | 59% | 1015.1 hPa | - | - | - | - |
| 1788449855 | 29.44° C | 58% | 1014.7 hPa | - | - | - | - |
| 1788448671 | 30° C | 55% | 1014.4 hPa | - | - | - | - |
| 1788447447 | 31.11° C | 48% | 1014.2 hPa | - | - | - | - |
| 1788446243 | 32.78° C | 37% | 1014.1 hPa | - | - | - | - |
| 1788445039 | 32.78° C | 39% | 1013.9 hPa | - | - | - | - |
| 1788443835 | 32.78° C | 39% | 1014.2 hPa | - | - | - | - |
| 1788442631 | 32.78° C | 40% | 1014.6 hPa | - | - | - | - |
| 1788441427 | 32.22° C | 41% | 1015 hPa | - | - | - | - |
| 1788440223 | 31.11° C | 44% | 1015.2 hPa | - | - | - | - |
| 1788439019 | 31.67° C | 46% | 1015.4 hPa | - | - | - | - |
| 1788437815 | 31.67° C | 49% | 1015.7 hPa | - | - | - | - |
| 1788436611 | 31.67° C | 49% | 1015.8 hPa | - | - | - | - |
| 1788434203 | 31.11° C | 51% | 1016.2 hPa | - | - | - | - |
| 1788432999 | 31.67° C | 48% | 1016 hPa | - | - | - | - |
| 1788431795 | 31.11° C | 49% | 1016.5 hPa | - | - | - | - |
| 1788430591 | 30.56° C | 50% | 1016.5 hPa | - | - | - | - |
| 1788429387 | 30.56° C | 49% | 1016.7 hPa | - | - | - | - |
| 1788426979 | 30° C | 56% | 1017.3 hPa | - | - | - | - |
| 1788425775 | 30.56° C | 53% | 1017 hPa | - | - | - | - |
| 1788424570 | 30° C | 56% | 1017.1 hPa | - | - | - | - |
| 1788423366 | 30.56° C | 55% | 1017 hPa | - | - | - | - |
* Rain since midnight (hover to see other rain measurements)
** Current wind speed in m/s (hover to see current wind gust speed)